This is the latest recevied weather packets stored in our database for station/object KI6PPU. If no packets are shown the sender has not sent any weather packets the latest 1 day(s).
| Time | Temp. | Humidity | Pressure | Rain* | Wind** | Luminosity | Snow |
|---|---|---|---|---|---|---|---|
| 1778041582 | 13.33° C | 93% | 1019.7 hPa | 0 mm | - | 0 W/m² | - |
| 1778040978 | 13.33° C | 92% | 1019.4 hPa | 0 mm | - | 0 W/m² | - |
| 1778040372 | 13.33° C | 92% | 1019.3 hPa | 0 mm | - | 0 W/m² | - |
| 1778039766 | 13.33° C | 92% | 1019.1 hPa | 0 mm | - | 0 W/m² | - |
| 1778038856 | 13.33° C | 91% | 1019 hPa | 0 mm | - | 0 W/m² | - |
| 1778038250 | 13.89° C | 90% | 1019.1 hPa | 0 mm | - | 0 W/m² | - |
| 1778037948 | 13.89° C | 90% | 1018.8 hPa | 0 mm | - | 0 W/m² | - |
| 1778037644 | 13.89° C | 90% | 1019 hPa | 0 mm | - | 0 W/m² | - |
| 1778037342 | 13.89° C | 90% | 1018.8 hPa | 0 mm | - | 0 W/m² | - |
| 1778037039 | 13.89° C | 89% | 1018.5 hPa | 0 mm | - | 0 W/m² | - |
| 1778036434 | 13.89° C | 89% | 1018.5 hPa | 0 mm | - | 0 W/m² | - |
| 1778036131 | 14.44° C | 89% | 1018.3 hPa | 0 mm | - | 0 W/m² | - |
| 1778035827 | 13.89° C | 88% | 1018.3 hPa | 0 mm | - | 1 W/m² | - |
| 1778035524 | 14.44° C | 88% | 1018.3 hPa | 0 mm | - | 2 W/m² | - |
| 1778035220 | 14.44° C | 86% | 1018.2 hPa | 0 mm | - | 5 W/m² | - |
| 1778034916 | 14.44° C | 86% | 1018.2 hPa | 0 mm | - | 7 W/m² | - |
| 1778034009 | 15° C | 84% | 1018.1 hPa | 0 mm | - | 22 W/m² | - |
| 1778033101 | 15° C | 83% | 1017.7 hPa | 0 mm | - | 39 W/m² | - |
| 1778032495 | 15° C | 84% | 1017.6 hPa | 0 mm | - | 53 W/m² | - |
| 1778032192 | 15° C | 83% | 1017.9 hPa | 0 mm | - | 64 W/m² | - |
| 1778031889 | 15° C | 83% | 1017.7 hPa | 0 mm | - | 61 W/m² | - |
| 1778031585 | 15° C | 83% | 1018 hPa | 0 mm | - | 71 W/m² | - |
| 1778030979 | 15° C | 83% | 1018 hPa | 0 mm | - | 59 W/m² | - |
| 1778030676 | 15° C | 83% | 1017.9 hPa | 0 mm | - | 62 W/m² | - |
| 1778030373 | 15° C | 84% | 1018 hPa | 0 mm | - | 62 W/m² | - |
* Rain latest hour (hover to see other rain measurements)
** Current wind speed in m/s (hover to see current wind gust speed)